Flag for Dominican Republic Weather past 2 weeks in Santiago de los Caballeros, Dominican Republic

Now
79 °F

Scattered clouds.


Feels Like: 82 °F
Forecast: 74 / 89 °F
Wind: No wind

Location: Santiago

Current Time: Sep 23, 2014 at 10:35:15 AM

Latest Report: Sep 23, 2014 at 10:00 AM


Visibility: N/A

Pressure: 29.95 "Hg

Humidity: 89%

Dew point: 75 °F

Location of Santiago de los CaballerosLocation

Historic Weather in Santiago de los Caballeros — Graph

°F

Santiago de los Caballeros temperature yesterday

Maximum temperature yesterday: 90 °F (at 2:00 PM)
Minimum temperature yesterday: 72 °F (at 5:00 AM)
Average temperature yesterday: 80 °F

Past Weeks' High & Low Weather Summary

 TemperatureHumidityPressure
High91 °F (Sep 10, 3:00 PM)100% (Sep 9, 7:00 AM)30.07 "Hg (Sep 9, 7:00 AM)
Low72 °F (Sep 9, 7:00 AM)46% (Sep 13, 4:00 PM)29.86 "Hg (Sep 17, 4:00 PM)
Average80 °F81%29.97 "Hg
* Reported Sep 8 9:00 AM — Sep 23 9:00 AM, Santiago de los Caballeros, Weather by CustomWeather, © 2014

Note: Actual official high and low records may vary slightly from our data, if they occured in-between our weather recording intervals... More about our weather records

Advertising

Santiago de los Caballeros weather history for previous 24 hours

 ConditionsComfort  
Time TempWeatherWind HumidityBarometerVisibility
9:00 AM
Sep 23
75 °FRain. Partly sunny.5 mph100%29.95 "Hg4 mi
8:00 AM73 °FBroken clouds.No wind100%29.92 "HgN/A
7:00 AM73 °FPartly sunny.5 mph100%29.92 "HgN/A
6:00 AM73 °FPassing clouds.No wind100%29.89 "HgN/A
5:00 AM73 °FThunderstorms. Partly cloudy.No wind100%29.92 "Hg4 mi
4:00 AM75 °FMild.No wind94%29.92 "HgN/A
3:00 AM73 °FThunderstorms. Passing clouds.5 mph100%29.92 "HgN/A
2:00 AM75 °FThunderstorms. Passing clouds.2 mph94%29.95 "HgN/A
1:00 AM75 °FThunderstorms. Passing clouds.No wind89%29.95 "HgN/A
12:00 AM77 °FPassing clouds.No wind89%29.95 "HgN/A
11:00 PM
Sep 22
79 °FPassing clouds.7 mph84%29.95 "HgN/A
10:00 PM77 °FWarm.3 mph83%29.95 "HgN/A
9:00 PM79 °FThunderstorms. Passing clouds.5 mph79%29.95 "HgN/A
8:00 PM79 °FThunderstorms. Passing clouds.7 mph79%29.95 "HgN/A
7:00 PM82 °FPassing clouds.8 mph74%29.92 "HgN/A
6:00 PM84 °FScattered clouds.14 mph62%29.89 "HgN/A
5:00 PM90 °FScattered clouds.17 mph67%29.89 "HgN/A
4:00 PM90 °FScattered clouds.17 mph67%29.89 "HgN/A
3:00 PM90 °FScattered clouds.14 mph59%29.89 "HgN/A
2:00 PM90 °FScattered clouds.7 mph59%29.92 "HgN/A
1:00 PM88 °FScattered clouds.8 mph55%29.95 "HgN/A
12:00 PM86 °FScattered clouds.12 mph62%29.98 "HgN/A
11:00 AM84 °FScattered clouds.12 mph66%30.01 "HgN/A
10:00 AM84 °FWarm.9 mph66%30.01 "HgN/A
Weather by CustomWeather, © 2014

See weather overviewHow to use our weather pages